Skip Navigation Links
NOAA logo - Click to go to the NOAA homepage
NOAA's National Weather Service
Alaska Aviation Weather Unit
  NWS logo - Click to go to the NWS homepage
Left Navbar Graphic     17 AKDT = 01 GMT

   
NOAA is celebrating 200 years of science, service, and stewardship. Visit the NOAA 200th celebration Web site to learn more.
USA.gov is the U.S. Government's official Web portal to all Federal, state and local government Web resources and services.
Facebook
NWS on Facebook

Important Change Regarding the AAWU Web Presence

 

Over the last several months, the AAWU has been working to navigate its webpages to a nationally supported server. Security, as well as other needs, have necessitated the change.  In the process, we have made an effort to enhance the functionality of our website, as well as some of our products. As of June 27, 2017, aawu.arh.noaa.gov will be discontinued. The new AAWU web address is weather.gov/aawu. It is now live and will run in-parallel with the old site until it is discontinued. Please send any feedback or questions regarding the new webpages to nws.ar.aawu.webauthors@noaa.gov.  Thank you for your patience during this time of transition.
AAWU Home :: Display TAF Add Bookmark
TAF PAKN 252331Z 2600/2624 18014G24KT P6SM VCSH SCT030 OVC050
     FM260900 13010KT 6SM -RA BR BKN025 OVC050
     FM262100 14011KT P6SM SCT025 OVC050=
METAR PAKN 251954Z 19012G21KT 10SM CLR 18/04 A2997=

METAR PAKN 252054Z 18015G20KT 10SM CLR 17/04 A2997=

METAR PAKN 252154Z 19013G19KT 10SM CLR 18/07 A2995=

METAR PAKN 252254Z 17017G22KT 10SM CLR 18/06 A2994=

METAR PAKN 252354Z 17016G21KT 10SM FEW042 18/07 A2993=

METAR PAKN 260054Z 17020G29KT 10SM BKN080 15/06 A2992=


NOAA's National Weather Service
Alaska Aviation Weather Unit
6930 Sand Lake Road
Anchorage, AK 99502-1845
Disclaimer
Credits
Glossary
Privacy Policy
About Us
Career Opportunities
Contact AAWU Internet Services Site last modified: April, 17th 2012